�������l�o���
Date,Time,MP-1(��Sv/h),MP-2(��Sv/h),MP-3(��Sv/h),MP-4(��Sv/h),MP-5(��Sv/h),MP-6(��Sv/h),MP-7(��Sv/h),MP-8(��Sv/h),����,����(m/s),���J
2023/05/10,00:00,0.545,0.800,0.485,0.989,0.692,0.320,0.566,0.536,��,5.0,��
2023/05/10,00:10,0.543,0.800,0.485,0.989,0.690,0.319,0.569,0.536,��쐼,4.9,��
2023/05/10,00:20,0.544,0.800,0.485,0.989,0.690,0.319,0.568,0.538,��쐼,4.9,��
2023/05/10,00:30,0.544,0.801,0.486,0.989,0.690,0.319,0.568,0.537,��쐼,4.5,��
2023/05/10,00:40,0.543,0.801,0.485,0.989,0.691,0.318,0.567,0.537,��쐼,4.2,��
2023/05/10,00:50,0.545,0.801,0.486,0.987,0.690,0.319,0.567,0.537,��쐼,4.4,��
2023/05/10,01:00,0.545,0.800,0.485,0.989,0.691,0.319,0.568,0.537,��쐼,4.5,��
2023/05/10,01:10,0.544,0.802,0.486,0.990,0.691,0.319,0.568,0.538,��쐼,4.7,��
2023/05/10,01:20,0.543,0.800,0.484,0.989,0.690,0.318,0.568,0.537,��쐼,4.7,��
2023/05/10,01:30,0.543,0.801,0.485,0.988,0.691,0.318,0.566,0.537,�쐼,4.2,��
2023/05/10,01:40,0.545,0.801,0.485,0.986,0.690,0.319,0.568,0.536,�쐼,4.0,��
2023/05/10,01:50,0.543,0.801,0.486,0.988,0.691,0.318,0.568,0.538,�쐼,3.5,��
2023/05/10,02:00,0.544,0.799,0.485,0.989,0.692,0.320,0.567,0.536,���쐼,3.2,��
2023/05/10,02:10,0.544,0.801,0.485,0.987,0.690,0.320,0.568,0.536,���쐼,3.0,��
2023/05/10,02:20,0.543,0.800,0.485,0.989,0.691,0.319,0.567,0.538,��,2.9,��
2023/05/10,02:30,0.545,0.799,0.485,0.991,0.690,0.318,0.568,0.538,���k��,2.3,��
2023/05/10,02:40,0.545,0.800,0.485,0.991,0.691,0.319,0.569,0.537,���k��,2.3,��
2023/05/10,02:50,0.544,0.801,0.485,0.991,0.691,0.320,0.569,0.536,�k��,4.5,��
2023/05/10,03:00,0.543,0.800,0.486,0.989,0.692,0.319,0.569,0.539,�k��,4.5,��
2023/05/10,03:10,0.545,0.802,0.485,0.989,0.691,0.319,0.568,0.536,�k��,4.4,��
2023/05/10,03:20,0.544,0.803,0.486,0.989,0.690,0.319,0.567,0.535,�k��,4.9,��
2023/05/10,03:30,0.545,0.801,0.486,0.988,0.691,0.319,0.569,0.537,�k��,5.3,��
2023/05/10,03:40,0.545,0.802,0.485,0.989,0.690,0.319,0.567,0.535,�k��,4.7,��
2023/05/10,03:50,0.543,0.800,0.484,0.989,0.692,0.320,0.567,0.535,�k��,5.3,��
2023/05/10,04:00,0.543,0.800,0.483,0.988,0.691,0.319,0.568,0.536,�k��,4.8,��
2023/05/10,04:10,0.543,0.801,0.485,0.990,0.692,0.319,0.568,0.537,�k��,4.1,��
2023/05/10,04:20,0.543,0.801,0.486,0.989,0.691,0.318,0.568,0.535,���k��,3.8,��
2023/05/10,04:30,0.543,0.800,0.486,0.989,0.689,0.318,0.566,0.536,���k��,3.7,��
2023/05/10,04:40,0.543,0.798,0.484,0.989,0.691,0.319,0.566,0.538,�k��,3.4,��
2023/05/10,04:50,0.545,0.801,0.485,0.988,0.691,0.320,0.566,0.535,�k��,2.3,��
2023/05/10,05:00,0.545,0.800,0.484,0.991,0.691,0.318,0.567,0.537,�k��,2.3,��
2023/05/10,05:10,0.543,0.800,0.485,0.988,0.692,0.320,0.568,0.538,�k��,2.3,��
2023/05/10,05:20,0.544,0.801,0.483,0.987,0.692,0.319,0.567,0.537,�k��,2.2,��
2023/05/10,05:30,0.544,0.800,0.486,0.988,0.693,0.320,0.566,0.536,�k��,1.7,��
2023/05/10,05:40,0.545,0.801,0.485,0.989,0.692,0.321,0.568,0.536,�k��,1.7,��
2023/05/10,05:50,0.545,0.802,0.483,0.990,0.692,0.319,0.568,0.537,�k��,1.5,��
2023/05/10,06:00,0.545,0.801,0.486,0.989,0.690,0.318,0.568,0.537,�k,0.9,��
2023/05/10,06:10,0.544,0.802,0.488,0.992,0.690,0.319,0.569,0.538,�k�k��,0.6,��
2023/05/10,06:20,0.545,0.800,0.485,0.990,0.691,0.319,0.568,0.538,�k��,0.6,��
2023/05/10,06:30,0.544,0.801,0.487,0.991,0.691,0.321,0.568,0.537,�k�k��,1.2,��
2023/05/10,06:40,0.546,0.801,0.486,0.990,0.690,0.319,0.569,0.538,�k�k��,1.2,��
2023/05/10,06:50,0.547,0.801,0.487,0.991,0.692,0.321,0.568,0.537,�k,1.2,��
2023/05/10,07:00,0.547,0.803,0.487,0.991,0.692,0.319,0.568,0.536,-,CALM,��
2023/05/10,07:10,0.546,0.801,0.486,0.991,0.692,0.318,0.569,0.538,�k��,0.8,��
2023/05/10,07:20,0.546,0.801,0.487,0.993,0.691,0.320,0.569,0.538,�k��,0.9,��
2023/05/10,07:30,0.546,0.800,0.485,0.989,0.692,0.318,0.569,0.538,�k��,0.8,��
2023/05/10,07:40,0.547,0.802,0.488,0.990,0.692,0.318,0.569,0.538,���k��,1.1,��
2023/05/10,07:50,0.546,0.803,0.486,0.991,0.691,0.318,0.569,0.537,���k��,1.4,��
2023/05/10,08:00,0.546,0.801,0.488,0.991,0.694,0.318,0.567,0.537,���k��,1.5,��
2023/05/10,08:10,0.547,0.802,0.486,0.992,0.692,0.318,0.568,0.538,���k��,1.7,��
2023/05/10,08:20,0.545,0.800,0.485,0.992,0.692,0.318,0.568,0.536,���k��,1.5,��
2023/05/10,08:30,0.546,0.799,0.485,0.993,0.692,0.320,0.568,0.537,��,1.5,��
2023/05/10,08:40,0.545,0.802,0.486,0.992,0.692,0.319,0.568,0.535,���k��,1.7,��
2023/05/10,08:50,0.546,0.801,0.488,0.992,0.692,0.318,0.568,0.534,��,2.0,��
2023/05/10,09:00,0.545,0.801,0.485,0.991,0.691,0.319,0.565,0.535,��,2.2,��
2023/05/10,09:10,0.544,0.800,0.486,0.989,0.691,0.319,0.568,0.536,��,2.0,��
2023/05/10,09:20,0.545,0.801,0.485,0.990,0.692,0.319,0.566,0.535,��,1.7,��
2023/05/10,09:30,0.547,0.804,0.483,0.991,0.693,0.318,0.566,0.535,��,2.2,��
2023/05/10,09:40,0.546,0.801,0.485,0.990,0.695,0.319,0.567,0.536,���쓌,2.8,��
2023/05/10,09:50,0.544,0.800,0.486,0.993,0.694,0.320,0.566,0.536,���k��,3.0,��
2023/05/10,10:00,0.545,0.803,0.487,0.993,0.691,0.319,0.566,0.536,���k��,3.2,��
2023/05/10,10:10,0.548,0.801,0.486,0.993,0.693,0.318,0.566,0.539,���k��,2.9,��
2023/05/10,10:20,0.547,0.803,0.487,0.992,0.692,0.321,0.568,0.536,��,2.2,��
2023/05/10,10:30,0.547,0.803,0.485,0.992,0.692,0.319,0.567,0.538,��,2.8,��
2023/05/10,10:40,0.546,0.802,0.487,0.992,0.692,0.318,0.568,0.537,���쓌,2.9,��
2023/05/10,10:50,0.549,0.803,0.488,0.992,0.694,0.319,0.567,0.538,��,2.6,��
2023/05/10,11:00,0.546,0.805,0.486,0.994,0.694,0.320,0.567,0.538,��,2.8,��
2023/05/10,11:10,0.548,0.804,0.486,0.994,0.696,0.321,0.567,0.537,��,2.6,��
2023/05/10,11:20,0.548,0.804,0.487,0.992,0.693,0.319,0.568,0.538,��,2.6,��
2023/05/10,11:30,0.547,0.803,0.488,0.991,0.695,0.321,0.568,0.537,���k��,2.6,��
2023/05/10,11:40,0.548,0.804,-,0.990,0.695,0.320,0.568,0.536,���쓌,2.8,��
2023/05/10,11:50,0.548,0.807,-,0.991,0.697,0.320,0.567,0.537,���쓌,3.0,��
2023/05/10,12:00,0.548,0.805,-,0.990,0.695,0.320,0.566,0.538,���쓌,2.8,��
2023/05/10,12:10,0.548,0.806,-,0.989,0.697,0.319,0.567,0.537,���쓌,3.1,��
2023/05/10,12:20,0.547,0.808,-,0.989,0.698,0.319,0.568,0.536,��,3.5,��
2023/05/10,12:30,0.550,0.808,-,0.990,0.696,0.320,0.568,0.538,��,3.4,��
2023/05/10,12:40,0.549,0.805,-,0.988,0.696,0.320,0.568,0.537,��,2.5,��
2023/05/10,12:50,0.549,0.805,-,0.990,0.695,0.320,0.569,0.536,���쓌,3.2,��
2023/05/10,13:00,0.549,0.806,-,0.992,0.698,0.320,0.568,0.538,���쓌,2.9,��
2023/05/10,13:10,0.550,0.807,-,0.993,0.699,0.320,0.569,0.539,�쓌,3.6,��
2023/05/10,13:20,0.550,0.806,-,0.994,0.697,0.320,0.569,0.538,���쓌,2.6,��
2023/05/10,13:30,0.551,0.806,-,0.994,0.696,0.320,0.570,0.538,���쓌,3.1,��
2023/05/10,13:40,0.551,0.808,-,0.995,0.696,0.320,0.567,0.537,�쓌,3.7,��
2023/05/10,13:50,0.549,0.806,-,0.996,0.697,0.320,0.567,0.538,���쓌,3.7,��
2023/05/10,14:00,0.549,0.807,-,0.996,0.697,0.320,0.569,0.538,�쓌,2.5,��
2023/05/10,14:10,0.549,0.806,-,0.993,0.697,0.320,0.569,0.539,���쓌,2.6,��
2023/05/10,14:20,0.550,0.806,-,0.993,0.700,0.320,0.569,0.538,�쓌,2.8,��
2023/05/10,14:30,0.550,0.808,-,0.993,0.698,0.320,0.570,0.540,���쓌,3.5,��
2023/05/10,14:40,0.549,0.808,-,0.992,0.698,0.320,0.570,0.537,��,2.5,��
2023/05/10,14:50,0.551,0.807,-,0.991,0.698,0.320,0.568,0.537,�쓌,3.3,��
2023/05/10,15:00,0.551,0.807,-,0.993,0.698,0.321,0.571,0.540,���쓌,2.6,��
2023/05/10,15:10,0.550,0.808,-,0.993,0.699,0.320,0.571,0.539,��,2.6,��
2023/05/10,15:20,0.550,0.808,-,0.993,0.699,0.320,0.571,0.538,��쓌,3.2,��
2023/05/10,15:30,0.549,0.808,-,0.994,0.700,0.321,0.569,0.538,��쓌,2.3,��
2023/05/10,15:40,0.550,0.808,0.488,0.993,0.699,0.320,0.571,0.539,�쓌,3.3,��
2023/05/10,15:50,0.551,0.808,0.488,0.993,0.695,0.320,0.570,0.539,�쓌,2.6,��
2023/05/10,16:00,0.548,0.808,0.489,0.994,0.697,0.321,0.571,0.539,�쓌,3.2,��
2023/05/10,16:10,0.551,0.810,0.489,0.994,0.698,0.320,0.570,0.537,�쓌,2.5,��
2023/05/10,16:20,0.550,0.808,0.490,0.995,0.700,0.321,0.569,0.538,���쓌,2.3,��
2023/05/10,16:30,0.549,0.808,0.488,0.993,0.699,0.321,0.571,0.537,�쓌,2.3,��
2023/05/10,16:40,0.550,0.809,0.488,0.995,0.700,0.320,0.571,0.537,�쓌,1.9,��
2023/05/10,16:50,0.550,0.809,0.487,0.994,0.698,0.321,0.570,0.538,�쓌,2.9,��
2023/05/10,17:00,0.549,0.810,0.488,0.993,0.699,0.322,0.570,0.539,�쓌,1.9,��
2023/05/10,17:10,0.549,0.810,0.490,0.992,0.700,0.320,0.570,0.539,���쓌,2.0,��
2023/05/10,17:20,0.550,0.810,0.488,0.991,0.699,0.322,0.569,0.538,�쓌,1.9,��
2023/05/10,17:30,0.550,0.812,0.488,0.992,0.698,0.322,0.571,0.536,���쓌,2.0,��
2023/05/10,17:40,0.549,0.811,0.489,0.995,0.697,0.322,0.569,0.538,�쓌,2.2,��
2023/05/10,17:50,0.549,0.811,0.489,0.994,0.698,0.323,0.570,0.541,��쓌,2.5,��
2023/05/10,18:00,0.550,0.810,0.488,0.996,0.697,0.321,0.570,0.539,��쓌,2.6,��
2023/05/10,18:10,0.550,0.812,0.488,0.996,0.698,0.323,0.571,0.539,��쓌,3.0,��
2023/05/10,18:20,0.552,0.811,0.489,0.997,0.700,0.322,0.569,0.539,��쓌,2.6,��
2023/05/10,18:30,0.552,0.813,0.489,0.998,0.699,0.321,0.568,0.539,��,2.3,��
2023/05/10,18:40,0.553,0.813,0.489,0.998,0.701,0.321,0.568,0.540,��,2.3,��
2023/05/10,18:50,0.550,0.811,0.490,0.997,0.700,0.322,0.568,0.540,��쐼,2.0,��
2023/05/10,19:00,0.552,0.811,0.489,0.997,0.699,0.322,0.568,0.539,�쐼,2.0,��
2023/05/10,19:10,0.551,0.809,0.490,0.996,0.702,0.322,0.569,0.538,���쐼,1.5,��
2023/05/10,19:20,0.551,0.811,0.491,0.997,0.702,0.323,0.569,0.540,���k��,1.9,��
2023/05/10,19:30,0.551,0.812,0.489,0.997,0.702,0.322,0.570,0.539,���쐼,1.7,��
2023/05/10,19:40,0.552,0.812,0.490,0.995,0.702,0.322,0.571,0.538,���k��,2.6,��
2023/05/10,19:50,0.550,0.812,0.489,0.996,0.700,0.322,0.571,0.538,�k��,2.6,��
2023/05/10,20:00,0.551,0.812,0.491,0.998,0.702,0.322,0.572,0.538,�k��,2.0,��
2023/05/10,20:10,0.551,0.811,0.491,0.998,0.701,0.321,0.571,0.538,�k��,3.0,��
2023/05/10,20:20,0.551,0.811,0.489,0.997,0.701,0.322,0.571,0.537,�k��,4.0,��
2023/05/10,20:30,0.550,0.812,0.492,0.998,0.700,0.321,0.571,0.540,�k��,4.1,��
2023/05/10,20:40,0.550,0.809,0.490,0.995,0.703,0.322,0.572,0.537,���k��,4.1,��
2023/05/10,20:50,0.552,0.811,0.490,0.997,0.701,0.322,0.572,0.538,���k��,4.6,��
2023/05/10,21:00,0.549,0.811,0.490,0.995,0.702,0.323,0.572,0.539,�k��,6.5,��
2023/05/10,21:10,0.550,0.811,0.490,0.997,0.702,0.322,0.571,0.538,�k�k��,6.6,��
2023/05/10,21:20,0.550,0.811,0.490,0.999,0.700,0.321,0.571,0.539,�k�k��,6.7,��
2023/05/10,21:30,0.551,0.811,0.489,0.997,0.702,0.322,0.572,0.540,�k,6.6,��
2023/05/10,21:40,0.551,0.812,0.491,0.997,0.699,0.322,0.572,0.539,�k,7.5,��
2023/05/10,21:50,0.549,0.810,0.490,0.995,0.700,0.321,0.572,0.538,�k,7.0,��
2023/05/10,22:00,0.551,0.812,0.490,0.997,0.700,0.322,0.574,0.539,�k�k��,6.1,��
2023/05/10,22:10,0.551,0.810,0.489,0.997,0.701,0.322,0.572,0.538,�k�k��,5.6,��
2023/05/10,22:20,0.550,0.810,0.489,0.998,0.701,0.320,0.571,0.539,�k,5.5,��
2023/05/10,22:30,0.551,0.811,0.490,0.997,0.705,0.321,0.571,0.540,�k,4.6,��
2023/05/10,22:40,0.549,0.810,0.489,0.997,0.700,0.321,0.571,0.540,�k�k��,3.4,��
2023/05/10,22:50,0.549,0.810,0.488,0.996,0.702,0.321,0.571,0.539,�k�k��,2.3,��
2023/05/10,23:00,0.551,0.811,0.489,0.995,0.702,0.322,0.571,0.539,�k��,2.0,��
2023/05/10,23:10,0.549,0.811,0.491,0.995,0.702,0.321,0.570,0.538,�k�k��,2.3,��
2023/05/10,23:20,0.548,0.809,0.489,0.996,0.702,0.322,0.570,0.539,�k��,2.5,��
2023/05/10,23:30,0.550,0.810,0.489,0.996,0.701,0.321,0.570,0.539,�k��,2.3,��
2023/05/10,23:40,0.549,0.810,0.489,0.997,0.702,0.321,0.571,0.539,�k��,2.6,��
2023/05/10,23:50,0.549,0.809,0.489,0.996,0.701,0.322,0.570,0.539,���k��,2.3,��
